, AK

(GMT )
Valdez Airport

Weather History for PAVD - November, 2012

Change the Weather History Date:

Thursday, November 22, 2012

  Actual Average Record
Temperature  
Mean Temperature 12 °F -  
Max Temperature 21 °F 32 °F 41 °F (1976)
Min Temperature 3 °F 24 °F 3 °F (2012)
Degree Days  
Heating Degree Days 53    
Moisture  
Dew Point -1 °F    
Average Humidity 55    
Maximum Humidity 79    
Minimum Humidity 39    
Precipitation  
Precipitation 0.00 in - - ()
Sea Level Pressure  
Sea Level Pressure 29.66 in    
Wind  
Wind Speed 5 mph (East)    
Max Wind Speed 24 mph    
Max Gust Speed 38 mph    
Visibility 10 miles    
Events      
Averages and records for this station are not official NWS values.
T = Trace of Precipitation, MM = Missing Value Source: NWS Daily Summary

Daily Weather History Graph

Daily Weather History Graph

Search for Another Location

Airport or City:

Trip Planner

Search our weather history database for the weather conditions in past years. The results will help you decide how hot, cold, wet, or windy it might be!

Date:

Astronomy

Nov. 22, 2012 Rise Set
Actual Time 9:10 AM AKST 3:51 PM AKST
Civil Twilight 8:15 AM AKST 4:46 PM AKST
Nautical Twilight 7:20 AM AKST 5:41 PM AKST
Astronomical Twilight 6:28 AM AKST 6:33 PM AKST
Moon 1:59 PM AKST (11/22) 2:13 AM AKST (11/22)
Length of Visible Light 8h 30m
Length of Day
6h 41m
Waxing Gibbous, 72% of the Moon is Illuminated
Nov 22
Waxing Gibbous
Nov 28
Full
Dec 6
Last Quarter
Dec 12
New
Dec 19
First Quarter

Hourly Weather History & Observations

Time (AKST) Temp. Windchill Dew Point Humidity Pressure Visibility Wind Dir Wind Speed Gust Speed Precip Events Conditions
12:16 AM 6.8 °F - -4.0 °F 61% 29.89 in 10.0 mi Calm Calm - N/A   Overcast
12:36 AM 6.8 °F - -2.2 °F 67% 29.89 in 10.0 mi Calm Calm - N/A   Mostly Cloudy
1:16 AM 8.6 °F 2.0 °F 1.4 °F 73% 29.89 in 10.0 mi NNE 3.5 mph - N/A   Clear
1:36 AM 6.8 °F - -2.2 °F 67% 29.88 in 10.0 mi Calm Calm - N/A   Clear
1:56 AM 6.8 °F -3.5 °F -2.2 °F 67% 29.88 in 10.0 mi East 5.8 mph - N/A   Clear
2:16 AM 6.8 °F - -2.2 °F 67% 29.88 in 10.0 mi Calm Calm - N/A   Clear
2:36 AM 5.0 °F - -2.2 °F 72% 29.88 in 10.0 mi Calm Calm - N/A   Clear
2:56 AM 6.8 °F -3.5 °F -0.4 °F 72% 29.88 in 10.0 mi East 5.8 mph - N/A   Clear
3:36 AM 3.2 °F - -4.0 °F 72% 29.88 in 10.0 mi Calm Calm - N/A   Clear
3:56 AM 6.8 °F - -5.8 °F 56% 29.88 in 10.0 mi Calm Calm - N/A   Clear
4:36 AM 8.6 °F 2.0 °F 1.4 °F 73% 29.88 in 10.0 mi ENE 3.5 mph - N/A   Clear
4:56 AM 6.8 °F - -2.2 °F 67% 29.87 in 10.0 mi Calm Calm - N/A   Clear
5:36 AM 6.8 °F -2.0 °F -2.2 °F 67% 29.87 in 10.0 mi SSE 4.6 mph - N/A   Clear
6:16 AM 3.2 °F -7.8 °F -7.6 °F 61% 29.86 in 10.0 mi East 5.8 mph - N/A   Clear
6:36 AM 6.8 °F -2.0 °F -0.4 °F 72% 29.85 in 10.0 mi ESE 4.6 mph - N/A   Clear
6:56 AM 6.8 °F -0.1 °F 1.4 °F 79% 29.85 in 10.0 mi ESE 3.5 mph - N/A   Clear
7:16 AM 10.4 °F - 1.4 °F 67% 29.84 in 10.0 mi Calm Calm - N/A   Clear
7:36 AM 5.0 °F -5.6 °F -5.8 °F 61% 29.84 in 10.0 mi ENE 5.8 mph - N/A   Clear
7:56 AM 8.6 °F - 3.2 °F 79% 29.82 in 10.0 mi Calm Calm - N/A   Clear
8:16 AM 5.0 °F -2.1 °F -2.2 °F 72% 29.82 in 10.0 mi NNE 3.5 mph - N/A   Clear
8:36 AM 5.0 °F - -0.4 °F 78% 29.81 in 10.0 mi Calm Calm - N/A   Clear
8:56 AM 5.0 °F - -2.2 °F 72% 29.80 in 10.0 mi Calm Calm - N/A   Partly Cloudy
9:36 AM 5.0 °F -8.1 °F -5.8 °F 61% 29.78 in 10.0 mi NE 8.1 mph - N/A   Partly Cloudy
9:56 AM 6.8 °F -2.0 °F -2.2 °F 67% 29.77 in 10.0 mi NNW 4.6 mph - N/A   Partly Cloudy
10:16 AM 6.8 °F -2.0 °F -0.4 °F 72% 29.77 in 10.0 mi East 4.6 mph - N/A   Partly Cloudy
10:36 AM 6.8 °F -0.1 °F -2.2 °F 67% 29.75 in 10.0 mi SSE 3.5 mph - N/A   Partly Cloudy
11:16 AM 12.2 °F 6.1 °F -0.4 °F 57% 29.72 in 10.0 mi NNE 3.5 mph - N/A   Partly Cloudy
12:16 PM 14.0 °F 6.5 °F 1.4 °F 57% 29.67 in 10.0 mi NW 4.6 mph - N/A   Clear
12:56 PM 17.6 °F 7.3 °F -0.4 °F 45% 29.64 in 10.0 mi ESE 8.1 mph 18.4 mph N/A   Clear
1:16 PM 17.6 °F 7.3 °F -0.4 °F 45% 29.61 in 10.0 mi East 8.1 mph - N/A   Clear
1:36 PM 17.6 °F 3.2 °F 1.4 °F 49% 29.59 in 10.0 mi East 15.0 mph 20.7 mph N/A   Clear
1:56 PM 17.6 °F 6.4 °F 1.4 °F 49% 29.57 in 10.0 mi ENE 9.2 mph 18.4 mph N/A   Clear
2:16 PM 17.6 °F 10.7 °F 1.4 °F 49% 29.54 in 10.0 mi East 4.6 mph - N/A   Clear
2:36 PM 19.4 °F 7.9 °F -0.4 °F 42% 29.53 in 10.0 mi ENE 10.4 mph 25.3 mph N/A   Clear
2:56 PM 19.4 °F 5.5 °F -2.2 °F 39% 29.52 in 10.0 mi ESE 15.0 mph 19.6 mph N/A   Partly Cloudy
3:16 PM 19.4 °F 6.6 °F -0.4 °F 42% 29.50 in 10.0 mi East 12.7 mph 23.0 mph N/A   Partly Cloudy
3:36 PM 19.4 °F 3.6 °F -0.4 °F 42% 29.48 in 10.0 mi SE 19.6 mph 28.8 mph N/A   Partly Cloudy
3:56 PM 19.4 °F 2.1 °F -2.2 °F 39% 29.46 in 10.0 mi SE 24.2 mph 38.0 mph N/A   Partly Cloudy
4:36 PM 19.4 °F 4.1 °F -0.4 °F 42% 29.43 in 10.0 mi SE 18.4 mph 27.6 mph N/A   Partly Cloudy
4:56 PM 21.2 °F 5.2 °F -0.4 °F 39% 29.43 in 10.0 mi ESE 21.9 mph 32.2 mph N/A   Partly Cloudy
5:16 PM 19.4 °F 6.6 °F -2.2 °F 39% 29.44 in 10.0 mi East 12.7 mph 34.5 mph N/A   Partly Cloudy
5:36 PM 19.4 °F 14.3 °F -2.2 °F 39% 29.45 in 10.0 mi NW 3.5 mph - N/A   Partly Cloudy
5:56 PM 19.4 °F 7.2 °F -2.2 °F 39% 29.46 in 10.0 mi NE 11.5 mph 23.0 mph N/A   Partly Cloudy
6:16 PM 19.4 °F 11.5 °F -2.2 °F 39% 29.46 in 10.0 mi North 5.8 mph - N/A   Partly Cloudy
6:36 PM 19.4 °F 10.4 °F -0.4 °F 42% 29.45 in 10.0 mi East 6.9 mph - N/A   Partly Cloudy
6:56 PM 19.4 °F 8.6 °F -0.4 °F 42% 29.46 in 10.0 mi ENE 9.2 mph 23.0 mph N/A   Partly Cloudy
7:56 PM 19.4 °F 9.5 °F -0.4 °F 42% 29.47 in 10.0 mi East 8.1 mph 20.7 mph N/A   Mostly Cloudy
8:16 PM 19.4 °F 8.6 °F -0.4 °F 42% 29.47 in 10.0 mi ESE 9.2 mph 18.4 mph N/A   Mostly Cloudy
8:36 PM 21.2 °F 9.5 °F -0.4 °F 39% 29.47 in 10.0 mi East 11.5 mph 19.6 mph N/A   Mostly Cloudy
8:56 PM 19.4 °F 7.2 °F -0.4 °F 42% 29.47 in 10.0 mi East 11.5 mph 21.9 mph N/A   Mostly Cloudy
9:16 PM 19.4 °F 10.4 °F -0.4 °F 42% 29.49 in 10.0 mi ENE 6.9 mph 17.3 mph N/A   Mostly Cloudy
9:56 PM 19.4 °F 10.4 °F -0.4 °F 42% 29.50 in 10.0 mi NNE 6.9 mph - N/A   Mostly Cloudy
10:16 PM 19.4 °F 7.2 °F -0.4 °F 42% 29.49 in 10.0 mi NE 11.5 mph 16.1 mph N/A   Clear
10:36 PM 19.4 °F 8.6 °F -0.4 °F 42% 29.50 in 10.0 mi East 9.2 mph 17.3 mph N/A   Clear
10:56 PM 19.4 °F 7.2 °F -0.4 °F 42% 29.49 in 10.0 mi East 11.5 mph 20.7 mph N/A   Clear
11:16 PM 19.4 °F 11.5 °F 1.4 °F 46% 29.49 in 10.0 mi East 5.8 mph - N/A   Clear
11:36 PM 19.4 °F 10.4 °F 1.4 °F 46% 29.49 in 10.0 mi ENE 6.9 mph - N/A   Clear
11:56 PM 19.4 °F 4.1 °F 1.4 °F 46% 29.49 in 10.0 mi East 18.4 mph 23.0 mph N/A   Partly Cloudy